FW2068 Weather Reports


Display with metric or nautical units.
time (UTC)temp
F
wind
direction
speed
MPH
gust
MPH
rain 1hr
in
rain 24hr
in
rain mn
in
humidity
%
barometer
mb
20260831120023 77 103 2.0 3.0 0.00 0.00 0.00 78 1015.8
20260831115519 77 143 2.0 3.0 0.00 0.00 0.00 78 1015.8
20260831115014 77 135 2.0 3.0 0.00 0.00 0.00 77 1015.6
20260831114513 77 124 2.0 4.0 0.00 0.00 0.00 77 1015.5
20260831114008 77 117 3.0 5.0 0.00 0.00 0.00 77 1015.7
20260831113508 77 143 2.0 4.0 0.00 0.00 0.00 76 1015.6
20260831113004 77 133 4.0 4.0 0.00 0.00 0.00 76 1015.4
20260831112503 77 147 2.0 3.0 0.00 0.00 0.00 76 1015.5
20260831111958 78 136 2.0 4.0 0.00 0.00 0.00 75 1015.5
20260831111454 78 154 3.0 3.0 0.00 0.00 0.00 75 1015.4
20260831110949 78 124 2.0 4.0 0.00 0.00 0.00 74 1015.5
20260831110444 78 143 2.0 3.0 0.00 0.00 0.00 74 1015.5
20260831105943 78 141 3.0 4.0 0.00 0.00 0.00 75 1015.4
20260831105439 78 175 0.0 3.0 0.00 0.00 0.00 74 1015.4
20260831104939 78 98 1.0 2.0 0.00 0.00 0.00 74 1015.2
20260831104435 79 115 1.0 2.0 0.00 0.00 0.00 73 1015.2
20260831103931 79 96 0.0 3.0 0.00 0.00 0.00 72 1015.2
20260831103426 79 115 0.0 3.0 0.00 0.00 0.00 72 1015.2
20260831102922 79 151 3.0 4.0 0.00 0.00 0.00 71 1015.2
20260831102421 79 151 4.0 5.0 0.00 0.00 0.00 71 1015.1
20260831101917 79 130 2.0 4.0 0.00 0.00 0.00 71 1015.2
20260831101412 79 141 3.0 3.0 0.00 0.00 0.00 71 1015.2
20260831100908 80 149 3.0 3.0 0.00 0.00 0.00 71 1015.3
20260831100404 80 157 3.0 4.0 0.00 0.00 0.00 71 1015.3
20260831095904 80 156 3.0 3.0 0.00 0.00 0.00 71 1015.2
20260831095403 80 165 2.0 3.0 0.00 0.00 0.00 70 1015.1
20260831094858 80 161 2.0 3.0 0.00 0.00 0.00 70 1014.9
20260831094348 80 146 1.0 4.0 0.00 0.00 0.00 70 1015.1
20260831093844 80 178 4.0 4.0 0.00 0.00 0.00 69 1015.2
20260831093339 80 177 2.0 4.0 0.00 0.00 0.00 69 1015.0
20260831092835 80 175 3.0 4.0 0.00 0.00 0.00 68 1014.9
20260831092331 80 165 3.0 5.0 0.00 0.00 0.00 68 1014.9
20260831091825 80 162 3.0 5.0 0.00 0.00 0.00 68 1015.0
20260831091321 80 168 5.0 6.0 0.00 0.00 0.00 67 1015.0
20260831090816 81 154 5.0 6.0 0.00 0.00 0.00 66 1014.9
20260831090312 81 170 3.0 5.0 0.00 0.00 0.00 66 1014.9
20260831085808 81 159 5.0 6.0 0.00 0.00 0.00 65 1015.0
20260831085258 81 158 6.0 6.0 0.00 0.00 0.00 65 1014.9
20260831084757 81 157 3.0 8.0 0.00 0.00 0.00 65 1014.8
20260831084253 81 171 3.0 5.0 0.00 0.00 0.00 65 1015.0
20260831083749 82 183 2.0 6.0 0.00 0.00 0.00 64 1014.7
20260831083245 82 167 4.0 5.0 0.00 0.00 0.00 63 1014.7
20260831082743 82 143 4.0 6.0 0.00 0.00 0.00 63 1014.8
20260831082238 82 164 4.0 7.0 0.00 0.00 0.00 63 1014.8
20260831081734 82 163 3.0 9.0 0.00 0.00 0.00 62 1014.7
20260831081230 82 162 6.0 7.0 0.00 0.00 0.00 62 1014.5
20260831080726 82 155 5.0 8.0 0.00 0.00 0.00 62 1014.5
20260831080225 82 154 4.0 6.0 0.00 0.00 0.00 62 1014.6
20260831075721 82 149 5.0 6.0 0.00 0.00 0.00 62 1014.6
20260831075217 82 162 4.0 4.0 0.00 0.00 0.00 61 1014.7
20260831074716 83 182 3.0 4.0 0.00 0.00 0.00 61 1014.4
20260831074211 83 152 2.0 5.0 0.00 0.00 0.00 61 1014.4
20260831073706 83 171 4.0 5.0 0.00 0.00 0.00 60 1014.3
20260831073205 83 166 4.0 5.0 0.00 0.00 0.00 60 1014.4
20260831072700 83 159 3.0 6.0 0.00 0.00 0.00 59 1014.4
20260831072157 83 176 4.0 5.0 0.00 0.00 0.00 59 1014.4
20260831071656 84 174 4.0 6.0 0.00 0.00 0.00 59 1014.3
20260831071151 83 166 4.0 6.0 0.00 0.00 0.00 59 1014.3
20260831070650 83 160 4.0 4.0 0.00 0.00 0.00 59 1014.5
20260831070145 84 162 3.0 6.0 0.00 0.00 0.00 58 1014.4
20260831065644 84 174 4.0 4.0 0.00 0.00 0.00 58 1014.5
20260831065143 84 160 3.0 5.0 0.00 0.00 0.00 58 1014.5
20260831064637 84 173 3.0 5.0 0.00 0.00 0.00 57 1014.4
20260831064133 84 180 4.0 6.0 0.00 0.00 0.00 57 1014.3
20260831063629 84 163 3.0 5.0 0.00 0.00 0.00 57 1014.2
20260831063124 84 162 4.0 4.0 0.00 0.00 0.00 57 1014.2
20260831062624 85 189 3.0 4.0 0.00 0.00 0.00 56 1014.3
20260831062124 85 166 4.0 6.0 0.00 0.00 0.00 56 1014.3
20260831061622 85 166 5.0 6.0 0.00 0.00 0.00 56 1014.5
20260831061118 85 160 3.0 5.0 0.00 0.00 0.00 56 1014.4
20260831060614 85 173 2.0 5.0 0.00 0.00 0.00 56 1014.6
20260831060109 85 180 2.0 4.0 0.00 0.00 0.00 56 1014.6
20260831055608 84 171 4.0 5.0 0.00 0.00 0.00 55 1014.5
20260831055104 85 161 2.0 5.0 0.00 0.00 0.00 55 1014.5
20260831054603 84 151 3.0 4.0 0.00 0.00 0.00 55 1014.4
20260831054102 84 149 2.0 4.0 0.00 0.00 0.00 55 1014.4
20260831053601 84 166 2.0 3.0 0.00 0.00 0.00 57 1014.4
20260831053056 85 155 3.0 3.0 0.00 0.00 0.00 55 1014.3
20260831052555 84 163 1.0 2.0 0.00 0.00 0.00 55 1014.5
20260831052055 84 149 2.0 2.0 0.00 0.00 0.00 55 1014.2
20260831051553 85 153 2.0 2.0 0.00 0.00 0.00 54 1014.2
20260831051053 85 167 0.0 2.0 0.00 0.00 0.00 54 1014.2
20260831050553 86 169 1.0 3.0 0.00 0.00 0.00 53 1014.2
20260831050051 86 128 0.0 2.0 0.00 0.00 0.00 52 1014.2
20260831045551 87 161 2.0 4.0 0.00 0.00 0.00 51 1014.2
20260831045051 87 156 2.0 3.0 0.00 0.00 0.00 51 1014.0
20260831044547 87 164 2.0 4.0 0.00 0.00 0.00 51 1014.1
20260831044042 87 162 4.0 4.0 0.00 0.00 0.00 50 1014.2
20260831043537 87 172 2.0 4.0 0.00 0.00 0.00 50 1014.1
20260831043032 87 147 4.0 6.0 0.00 0.00 0.00 50 1014.2
20260831042532 87 151 4.0 5.0 0.00 0.00 0.00 49 1014.2
20260831042032 88 163 4.0 6.0 0.00 0.00 0.00 49 1014.1
20260831041522 88 157 4.0 6.0 0.00 0.00 0.00 49 1014.1
20260831041021 88 146 4.0 6.0 0.00 0.00 0.00 49 1014.0
20260831040516 88 163 4.0 5.0 0.00 0.00 0.00 49 1013.9
20260831040015 88 152 2.0 5.0 0.00 0.00 0.00 49 1014.0
20260831035513 88 154 4.0 5.0 0.00 0.00 0.00 48 1014.0
20260831035009 88 156 3.0 4.0 0.00 0.00 0.00 49 1013.9
20260831034503 88 144 3.0 4.0 0.00 0.00 0.00 49 1014.0
20260831033958 89 146 3.0 4.0 0.00 0.00 0.00 48 1014.0
20260831033453 89 157 3.0 4.0 0.00 0.00 0.00 48 1013.9
20260831032949 89 135 1.0 4.0 0.00 0.00 0.00 48 1013.6
20260831032449 89 149 3.0 5.0 0.00 0.00 0.00 47 1013.6
20260831031944 89 162 2.0 3.0 0.00 0.00 0.00 48 1014.0
20260831031444 89 144 2.0 2.0 0.00 0.00 0.00 48 1013.7
20260831030943 89 186 1.0 3.0 0.00 0.00 0.00 47 1013.7
20260831030443 89 154 2.0 3.0 0.00 0.00 0.00 47 1013.7
20260831025941 89 151 2.0 2.0 0.00 0.00 0.00 47 1013.7
20260831025440 89 149 2.0 3.0 0.00 0.00 0.00 47 1013.6
20260831024936 89 142 2.0 3.0 0.00 0.00 0.00 47 1013.5
20260831024435 89 142 2.0 3.0 0.00 0.00 0.00 47 1013.6
20260831023930 89 137 2.0 3.0 0.00 0.00 0.00 48 1013.5
20260831023429 89 151 2.0 3.0 0.00 0.00 0.00 48 1013.4
20260831022924 89 144 2.0 3.0 0.00 0.00 0.00 47 1013.2
20260831022423 90 148 3.0 3.0 0.00 0.00 0.00 46 1013.4
20260831021918 90 140 1.0 3.0 0.00 0.00 0.00 47 1013.1
20260831021417 90 152 2.0 3.0 0.00 0.00 0.00 47 1013.2
20260831020914 90 145 2.0 4.0 0.00 0.00 0.00 46 1013.1
20260831020413 91 154 3.0 4.0 0.00 0.00 0.00 44 1013.1
20260831015908 91 153 2.0 4.0 0.00 0.00 0.00 45 1013.0
20260831015404 91 149 2.0 4.0 0.00 0.00 0.00 45 1012.7
20260831014904 91 150 3.0 3.0 0.00 0.00 0.00 45 1013.0
20260831014359 91 153 2.0 3.0 0.00 0.00 0.00 45 1012.9
20260831013855 91 137 2.0 3.0 0.00 0.00 0.00 44 1012.7
20260831013349 92 145 2.0 4.0 0.00 0.00 0.00 44 1012.6
20260831012843 92 138 2.0 4.0 0.00 0.00 0.00 44 1012.7
20260831012339 93 149 3.0 5.0 0.00 0.00 0.00 43 1012.6
20260831011834 93 129 3.0 3.0 0.00 0.00 0.00 42 1012.6
20260831011329 93 127 3.0 4.0 0.00 0.00 0.00 42 1012.6
20260831010825 94 147 2.0 6.0 0.00 0.00 0.00 42 1012.5
20260831010324 94 158 4.0 6.0 0.00 0.00 0.00 42 1012.7
20260831005819 94 148 5.0 6.0 0.00 0.00 0.00 41 1012.4
20260831005315 94 136 4.0 7.0 0.00 0.00 0.00 41 1012.6
20260831004810 95 145 4.0 6.0 0.00 0.00 0.00 41 1012.4
20260831004307 95 155 4.0 8.0 0.00 0.00 0.00 41 1012.5
20260831003802 95 157 4.0 5.0 0.00 0.00 0.00 40 1012.3
20260831003258 95 150 9.0 10.0 0.00 0.00 0.00 39 1012.4
20260831002756 96 136 3.0 10.0 0.00 0.00 0.00 40 1012.3
20260831002251 96 155 5.0 10.0 0.00 0.00 0.00 39 1012.3
20260831001747 96 161 6.0 8.0 0.00 0.00 0.00 38 1012.3
20260831001242 97 156 5.0 9.0 0.00 0.00 0.00 38 1012.5
20260831000739 97 157 5.0 10.0 0.00 0.00 0.00 37 1012.3
20260831000241 97 156 6.0 9.0 0.00 0.00 0.00 36 1012.6
20260830235737 98 139 7.0 10.0 0.00 0.00 0.00 34 1012.7
20260830235232 98 159 6.0 11.0 0.00 0.00 0.00 35 1012.6
20260830234727 98 155 6.0 7.0 0.00 0.00 0.00 35 1012.6
20260830234223 98 145 3.0 6.0 0.00 0.00 0.00 37 1012.5
20260830233719 98 153 5.0 6.0 0.00 0.00 0.00 37 1012.5
20260830233214 97 157 5.0 7.0 0.00 0.00 0.00 38 1012.6
20260830232709 97 158 5.0 7.0 0.00 0.00 0.00 37 1012.7
20260830232205 97 153 7.0 9.0 0.00 0.00 0.00 37 1012.7
20260830231702 98 162 7.0 13.0 0.00 0.00 0.00 37 1012.6
20260830231201 99 115 6.0 9.0 0.00 0.00 0.00 36 1012.5
20260830230656 99 147 6.0 9.0 0.00 0.00 0.00 35 1012.8
20260830230151 99 169 8.0 11.0 0.00 0.00 0.00 36 1012.7
20260830225646 99 134 7.0 12.0 0.00 0.00 0.00 35 1012.9
20260830225146 99 163 4.0 9.0 0.00 0.00 0.00 36 1012.8
20260830224644 99 162 12.0 13.0 0.00 0.00 0.00 35 1012.8
20260830224141 99 136 8.0 9.0 0.00 0.00 0.00 34 1012.9
20260830223638 99 184 4.0 11.0 0.00 0.00 0.00 35 1012.7
20260830223137 97 172 4.0 6.0 0.00 0.00 0.00 37 1012.7
20260830222632 98 171 4.0 9.0 0.00 0.00 0.00 37 1012.8
20260830222128 98 167 5.0 10.0 0.00 0.00 0.00 37 1012.8
20260830221623 98 161 7.0 13.0 0.00 0.00 0.00 37 1013.0
20260830221119 98 153 9.0 14.0 0.00 0.00 0.00 36 1013.0
20260830220615 100 132 6.0 11.0 0.00 0.00 0.00 35 1013.0
20260830220108 100 158 9.0 13.0 0.00 0.00 0.00 36 1013.0
20260830215607 100 146 6.0 17.0 0.00 0.00 0.00 37 1012.8
20260830215101 100 155 7.0 14.0 0.00 0.00 0.00 36 1012.9
20260830214556 101 93 5.0 8.0 0.00 0.00 0.00 34 1012.9
20260830214051 100 126 8.0 13.0 0.00 0.00 0.00 35 1012.9
20260830213551 101 148 9.0 13.0 0.00 0.00 0.00 35 1013.0
20260830213046 99 143 9.0 13.0 0.00 0.00 0.00 37 1013.0
20260830212542 101 141 9.0 11.0 0.00 0.00 0.00 36 1013.1
20260830212037 100 112 5.0 16.0 0.00 0.00 0.00 36 1013.2
20260830211532 99 158 5.0 15.0 0.00 0.00 0.00 38 1013.1
20260830211031 99 147 3.0 9.0 0.00 0.00 0.00 37 1013.4
20260830210526 99 148 11.0 15.0 0.00 0.00 0.00 37 1013.3
20260830210021 99 127 2.0 13.0 0.00 0.00 0.00 36 1013.3
20260830205518 98 188 3.0 7.0 0.00 0.00 0.00 35 1013.3
20260830205014 97 151 6.0 13.0 0.00 0.00 0.00 38 1013.5
20260830204513 98 167 9.0 15.0 0.00 0.00 0.00 38 1013.6
20260830204007 99 158 9.0 10.0 0.00 0.00 0.00 38 1013.5
20260830203503 98 156 9.0 13.0 0.00 0.00 0.00 38 1013.7
20260830203003 98 152 8.0 13.0 0.00 0.00 0.00 38 1013.7
20260830202457 99 183 6.0 11.0 0.00 0.00 0.00 37 1013.9
20260830201954 99 168 9.0 11.0 0.00 0.00 0.00 38 1013.9
20260830201452 98 184 7.0 10.0 0.00 0.00 0.00 37 1014.0
20260830200948 99 186 7.0 13.0 0.00 0.00 0.00 38 1014.1
20260830200443 99 173 6.0 13.0 0.00 0.00 0.00 36 1014.2
20260830195942 99 177 2.0 10.0 0.00 0.00 0.00 39 1014.3
20260830195438 99 162 11.0 13.0 0.00 0.00 0.00 35 1014.4
20260830194936 98 194 5.0 12.0 0.00 0.00 0.00 38 1014.4
20260830194435 98 167 3.0 7.0 0.00 0.00 0.00 40 1014.6
20260830193935 98 164 14.0 17.0 0.00 0.00 0.00 38 1014.7
20260830193434 98 154 12.0 16.0 0.00 0.00 0.00 39 1014.7
20260830192930 99 167 9.0 15.0 0.00 0.00 0.00 39 1014.7
20260830192425 98 175 4.0 9.0 0.00 0.00 0.00 38 1014.7
20260830191920 98 159 10.0 12.0 0.00 0.00 0.00 40 1015.0
20260830191420 98 175 4.0 9.0 0.00 0.00 0.00 40 1015.0
20260830190916 98 242 4.0 9.0 0.00 0.00 0.00 42 1015.1
20260830190411 97 176 8.0 11.0 0.00 0.00 0.00 40 1015.1
20260830185910 97 163 11.0 12.0 0.00 0.00 0.00 40 1015.0
20260830185405 98 161 10.0 12.0 0.00 0.00 0.00 42 1015.2
20260830184900 97 187 8.0 14.0 0.00 0.00 0.00 40 1015.4
20260830184359 97 191 7.0 12.0 0.00 0.00 0.00 41 1015.3
20260830183859 97 172 5.0 8.0 0.00 0.00 0.00 43 1015.3
20260830183354 96 164 7.0 11.0 0.00 0.00 0.00 42 1015.5
20260830182849 97 181 7.0 15.0 0.00 0.00 0.00 43 1015.5
20260830182345 96 160 10.0 12.0 0.00 0.00 0.00 42 1015.5
20260830181841 96 209 5.0 10.0 0.00 0.00 0.00 42 1015.6
20260830181336 96 231 4.0 8.0 0.00 0.00 0.00 43 1015.7
20260830180831 96 160 9.0 10.0 0.00 0.00 0.00 45 1015.8
20260830180330 96 134 4.0 6.0 0.00 0.00 0.00 44 1015.9
20260830175830 96 185 10.0 11.0 0.00 0.00 0.00 44 1015.9
20260830175324 95 181 4.0 11.0 0.00 0.00 0.00 45 1016.0
20260830174820 95 148 10.0 14.0 0.00 0.00 0.00 44 1016.2
20260830174315 95 180 9.0 13.0 0.00 0.00 0.00 45 1016.2
20260830173815 95 163 13.0 14.0 0.00 0.00 0.00 46 1016.3
20260830173311 95 143 6.0 9.0 0.00 0.00 0.00 46 1016.3
20260830172807 95 187 7.0 10.0 0.00 0.00 0.00 47 1016.5
20260830172306 95 289 4.0 8.0 0.00 0.00 0.00 49 1016.4
20260830171759 94 234 3.0 7.0 0.00 0.00 0.00 48 1016.6
20260830171253 94 146 4.0 10.0 0.00 0.00 0.00 49 1016.5
20260830170748 95 247 5.0 5.0 0.00 0.00 0.00 47 1016.7
20260830170248 94 146 3.0 8.0 0.00 0.00 0.00 50 1016.5
20260830165746 93 257 2.0 5.0 0.00 0.00 0.00 49 1016.8
20260830165243 93 182 5.0 8.0 0.00 0.00 0.00 51 1016.9
20260830164739 93 220 5.0 7.0 0.00 0.00 0.00 50 1016.9
20260830164234 93 160 8.0 9.0 0.00 0.00 0.00 52 1017.0
20260830163731 93 191 5.0 11.0 0.00 0.00 0.00 50 1017.0
20260830163227 93 220 4.0 7.0 0.00 0.00 0.00 52 1016.9
20260830162721 93 181 5.0 9.0 0.00 0.00 0.00 52 1017.1
20260830162217 92 167 9.0 9.0 0.00 0.00 0.00 53 1017.1
20260830161713 91 190 3.0 6.0 0.00 0.00 0.00 55 1017.1
20260830161207 91 169 9.0 10.0 0.00 0.00 0.00 54 1017.0
20260830160703 91 165 6.0 12.0 0.00 0.00 0.00 54 1017.0
20260830160202 91 165 5.0 11.0 0.00 0.00 0.00 55 1017.0
20260830155659 91 260 4.0 7.0 0.00 0.00 0.00 55 1017.1
20260830155155 90 180 5.0 11.0 0.00 0.00 0.00 57 1017.1
20260830154650 91 168 4.0 7.0 0.00 0.00 0.00 57 1017.1
20260830154145 91 163 4.0 6.0 0.00 0.00 0.00 55 1017.1
20260830153642 90 239 4.0 5.0 0.00 0.00 0.00 56 1017.2
20260830153142 89 180 3.0 7.0 0.00 0.00 0.00 59 1017.3
20260830152640 89 177 6.0 10.0 0.00 0.00 0.00 58 1017.0
20260830152140 89 187 3.0 6.0 0.00 0.00 0.00 59 1017.0
20260830151635 88 194 2.0 8.0 0.00 0.00 0.00 60 1017.1
20260830151130 89 161 6.0 9.0 0.00 0.00 0.00 59 1017.0
20260830150629 88 256 2.0 5.0 0.00 0.00 0.00 61 1017.0
20260830150124 88 147 3.0 6.0 0.00 0.00 0.00 61 1017.1
20260830145624 88 288 2.0 4.0 0.00 0.00 0.00 61 1017.0
20260830145119 88 261 4.0 6.0 0.00 0.00 0.00 61 1016.9
20260830144615 87 138 0.0 7.0 0.00 0.00 0.00 64 1016.8
20260830144110 87 181 4.0 6.0 0.00 0.00 0.00 65 1017.1
20260830143606 87 217 3.0 5.0 0.00 0.00 0.00 65 1017.3
20260830143104 86 178 3.0 4.0 0.00 0.00 0.00 67 1017.2
20260830142600 85 229 5.0 6.0 0.00 0.00 0.00 67 1017.2
20260830142055 85 183 2.0 4.0 0.00 0.00 0.00 68 1017.1
20260830141550 85 153 6.0 7.0 0.00 0.00 0.00 69 1017.1
20260830141045 85 152 4.0 5.0 0.00 0.00 0.00 70 1017.3
20260830140544 84 189 3.0 8.0 0.00 0.00 0.00 70 1017.2
20260830140040 83 156 6.0 7.0 0.00 0.00 0.00 71 1017.0
20260830135535 83 214 2.0 5.0 0.00 0.00 0.00 72 1017.0
20260830135030 83 158 3.0 6.0 0.00 0.00 0.00 72 1017.0
20260830134526 83 133 5.0 6.0 0.00 0.00 0.00 73 1016.9
20260830134021 82 181 3.0 6.0 0.00 0.00 0.00 74 1017.0
20260830133517 82 152 5.0 8.0 0.00 0.00 0.00 75 1017.1
20260830133012 82 169 4.0 6.0 0.00 0.00 0.00 74 1017.0
20260830132508 81 123 3.0 6.0 0.00 0.00 0.00 75 1016.8
20260830132008 81 156 4.0 6.0 0.00 0.00 0.00 75 1017.0
20260830131507 81 162 5.0 8.0 0.00 0.00 0.00 76 1017.0
20260830131001 80 159 6.0 7.0 0.00 0.00 0.00 76 1016.7
20260830130457 80 177 4.0 7.0 0.00 0.00 0.00 76 1016.8
20260830125956 80 184 4.0 6.0 0.00 0.00 0.00 76 1016.7
20260830125451 79 173 4.0 5.0 0.00 0.00 0.00 77 1016.7
20260830124949 79 156 4.0 4.0 0.00 0.00 0.00 78 1016.7
20260830124444 78 139 5.0 7.0 0.00 0.00 0.00 78 1016.5
20260830123941 78 150 4.0 5.0 0.00 0.00 0.00 78 1016.5
20260830123437 78 149 4.0 6.0 0.00 0.00 0.00 78 1016.2
20260830122935 78 154 5.0 8.0 0.00 0.00 0.00 78 1016.2
20260830122435 78 145 4.0 7.0 0.00 0.00 0.00 78 1016.3
20260830121930 78 149 3.0 4.0 0.00 0.00 0.00 78 1016.2
20260830121425 78 154 6.0 6.0 0.00 0.00 0.00 77 1016.1
20260830120920 78 149 4.0 5.0 0.00 0.00 0.00 77 1016.0
20260830120416 78 140 4.0 7.0 0.00 0.00 0.00 77 1015.9